User: anonymous   Login
Location: Unspecified
(0.0000°N, 0.0000°E)
Time: 13:00:08
(UTC+00:00)
Language:

Sich 1 - Orbit

View from above orbital plane
View from above orbital plane
View from above satellite
View from above satellite

Ground track
Ground track

The orbit data is extracted from the following two-line orbital elements,

1 23657U 95046A   21016.20144154  .00000199  00000-0  19689-4 0  9994
2 23657  82.5278 110.7221 0023471  69.4879 290.8854 14.86236646371880
Epoch (UTC): 16 January 2021 04:50:04
Eccentricity: 0.0023471
inclination: 82.5278°
perigee height: 593 km
apogee height: 626 km
right ascension of ascending node: 110.7221°
argument of perigee: 69.4879°
revolutions per day: 14.86236646
mean anomaly at epoch: 290.8854°
orbit number at epoch: 37188

The dashed part of the orbit path shows where the satellite is in the earth's shadow,  

DLR